TimeCDT,TemperatureF,Dew PointF,Humidity,Sea Level PressureIn,VisibilityMPH,Wind Direction,Wind SpeedMPH,Gust SpeedMPH,PrecipitationIn,Events,Conditions,WindDirDegrees,DateUTC
12:51 AM,73.9,64.9,73,30.13,10.0,East,5.8,-,N/A,,Partly Cloudy,80,2013-07-14 05:51:00
1:51 AM,75.0,64.9,71,30.12,10.0,East,8.1,-,N/A,,Partly Cloudy,100,2013-07-14 06:51:00
2:51 AM,75.0,64.9,71,30.14,10.0,East,10.4,-,N/A,,Clear,100,2013-07-14 07:51:00
3:51 AM,73.9,64.9,73,30.14,10.0,East,9.2,-,N/A,,Clear,80,2013-07-14 08:51:00
4:51 AM,73.0,64.9,76,30.16,10.0,East,8.1,-,N/A,,Clear,80,2013-07-14 09:51:00
5:51 AM,73.0,64.9,76,30.16,10.0,East,8.1,-,N/A,,Clear,80,2013-07-14 10:51:00
6:51 AM,73.0,64.9,76,30.16,10.0,East,12.7,-,N/A,,Clear,90,2013-07-14 11:51:00
7:51 AM,75.0,66.0,73,30.17,10.0,ESE,10.4,-,N/A,,Clear,110,2013-07-14 12:51:00
8:51 AM,77.0,66.0,69,30.17,10.0,ENE,9.2,-,N/A,,Clear,70,2013-07-14 13:51:00
9:51 AM,79.0,66.0,64,30.18,10.0,East,8.1,-,N/A,,Partly Cloudy,80,2013-07-14 14:51:00
10:51 AM,82.0,64.9,56,30.18,10.0,Calm,Calm,-,N/A,,Partly Cloudy,0,2013-07-14 15:51:00
11:51 AM,84.9,66.9,55,30.18,10.0,ENE,5.8,-,N/A,,Scattered Clouds,70,2013-07-14 16:51:00
12:51 PM,86.0,64.9,49,30.17,10.0,East,10.4,-,N/A,,Scattered Clouds,100,2013-07-14 17:51:00
1:51 PM,86.0,66.0,51,30.17,10.0,East,11.5,-,N/A,,Scattered Clouds,90,2013-07-14 18:51:00
2:51 PM,86.0,66.0,51,30.17,10.0,ENE,13.8,-,N/A,,Partly Cloudy,70,2013-07-14 19:51:00
3:51 PM,87.1,66.0,49,30.16,10.0,ENE,11.5,17.3,N/A,,Partly Cloudy,70,2013-07-14 20:51:00
4:51 PM,86.0,66.0,51,30.16,10.0,ENE,9.2,-,N/A,,Partly Cloudy,60,2013-07-14 21:51:00
5:51 PM,86.0,64.9,49,30.15,10.0,East,9.2,-,N/A,,Partly Cloudy,90,2013-07-14 22:51:00
6:51 PM,84.0,66.0,55,30.15,10.0,East,10.4,-,N/A,,Clear,90,2013-07-14 23:51:00
7:51 PM,82.0,66.0,58,30.16,10.0,ENE,8.1,-,N/A,,Clear,60,2013-07-15 00:51:00
8:51 PM,80.1,66.0,62,30.17,10.0,East,6.9,-,N/A,,Clear,90,2013-07-15 01:51:00
9:51 PM,79.0,66.0,64,30.19,10.0,East,6.9,-,N/A,,Clear,80,2013-07-15 02:51:00
10:51 PM,78.1,66.0,66,30.19,10.0,East,5.8,-,N/A,,Clear,80,2013-07-15 03:51:00
11:51 PM,77.0,66.0,69,30.19,10.0,NE,5.8,-,N/A,,Clear,50,2013-07-15 04:51:00